Clinton-Sherman, OK

12:59 PM CST on February 18, 2018 (GMT -0600)
Clinton-Sherman

Weather History for KCSM - December, 2013

Change the Weather History Date:

Sunday, December 8, 2013

  Actual Average Record
Temperature  
Mean Temperature 22 °F -  
Max Temperature 28 °F 50 °F 70 °F (2003)
Min Temperature 17 °F 31 °F 3 °F (2005)
Degree Days  
Heating Degree Days 42    
Moisture  
Dew Point 16 °F    
Average Humidity 84    
Maximum Humidity 93    
Minimum Humidity 74    
Precipitation  
Precipitation 0.00 in - - ()
Sea Level Pressure  
Sea Level Pressure 30.09 in    
Wind  
Wind Speed 10 mph (SSE)    
Max Wind Speed 18 mph    
Max Gust Speed 24 mph    
Visibility 7 miles    
Events Rain , Snow    
Averages and records for this station are not official NWS values.
T = Trace of Precipitation, MM = Missing Value Source: NWS Daily Summary

Daily Weather History Graph

Daily Weather History Graph

Search for Another Location

Airport or City:

Trip Planner

Search our weather history database for the weather conditions in past years. The results will help you decide how hot, cold, wet, or windy it might be!

Date:

Astronomy

Dec. 08, 2013 Rise Set
Actual Time 7:33 AM CST 5:24 PM CST
Civil Twilight 7:05 AM CST 5:52 PM CST
Nautical Twilight 6:33 AM CST 6:24 PM CST
Astronomical Twilight 6:02 AM CST 6:54 PM CST
Moon 12:04 PM CST (12/8) No Moon Set
Length of Visible Light 10h 47m
Length of Day
9h 50m
Waxing Crescent, 40% of the Moon is Illuminated
Dec 8
Waxing Crescent
Dec 9
First Quarter
Dec 17
Full
Dec 25
Last Quarter
Jan 1
New

Hourly Weather History & Observations

Time (CST) Temp. Windchill Dew Point Humidity Pressure Visibility Wind Dir Wind Speed Gust Speed Precip Events Conditions
12:53 AM 17.1 °F 8.7 °F 10.9 °F 77% 30.25 in 8.0 mi ESE 5.8 mph - N/A   Overcast
1:25 AM 17.6 °F 9.3 °F 12.2 °F 79% 30.15 in 2.5 mi SSE 5.8 mph - 0.00 in Snow Light Snow
1:36 AM 17.6 °F 7.3 °F 12.2 °F 79% 30.15 in 1.5 mi SSE 8.1 mph - 0.00 in Snow Light Snow
1:53 AM 17.1 °F 6.6 °F 12.9 °F 84% 30.21 in 1.5 mi SSE 8.1 mph - 0.00 in Snow Light Snow
2:12 AM 17.6 °F 7.3 °F 12.2 °F 79% 30.12 in 2.0 mi SSE 8.1 mph - 0.00 in Snow Light Snow
2:26 AM 17.6 °F 6.4 °F 12.2 °F 79% 30.11 in 2.5 mi South 9.2 mph - 0.00 in Snow Light Snow
2:33 AM 17.6 °F 6.4 °F 12.2 °F 79% 30.11 in 3.0 mi South 9.2 mph - 0.00 in Snow Light Snow
2:53 AM 17.1 °F 5.0 °F 12.9 °F 84% 30.17 in 7.0 mi South 10.4 mph - 0.00 in   Overcast
3:08 AM 17.6 °F 6.4 °F 12.2 °F 79% 30.09 in 7.0 mi South 9.2 mph - N/A   Overcast
3:53 AM 17.1 °F 5.8 °F 12.9 °F 84% 30.15 in 8.0 mi South 9.2 mph - 0.00 in   Overcast
4:09 AM 17.6 °F 4.3 °F 14.0 °F 86% 30.06 in 6.0 mi South 12.7 mph - N/A   Overcast
4:53 AM 17.1 °F 3.6 °F 14.0 °F 88% 30.12 in 7.0 mi South 12.7 mph - N/A   Overcast
5:53 AM 17.1 °F 2.5 °F 14.0 °F 88% 30.11 in 4.0 mi SSW 15.0 mph - 0.00 in Snow Light Snow
6:53 AM 17.1 °F 2.0 °F 14.0 °F 88% 30.09 in 6.0 mi South 16.1 mph - 0.00 in Rain Light Freezing Rain
7:14 AM 17.6 °F 2.7 °F 14.0 °F 86% 30.01 in 6.0 mi SSW 16.1 mph - 0.00 in   Overcast
7:53 AM 17.1 °F 2.0 °F 14.0 °F 88% 30.09 in 4.0 mi SSW 16.1 mph - 0.00 in   Overcast
8:53 AM 17.1 °F 2.0 °F 14.0 °F 88% 30.08 in 7.0 mi South 16.1 mph - 0.00 in   Overcast
9:16 AM 17.6 °F 2.2 °F 14.0 °F 86% 29.99 in 10.0 mi South 17.3 mph - N/A   Overcast
9:53 AM 18.0 °F 3.6 °F 14.0 °F 84% 30.06 in 10.0 mi South 15.0 mph - N/A   Overcast
10:53 AM 21.0 °F 6.6 °F 17.1 °F 85% 30.06 in 10.0 mi South 17.3 mph 21.9 mph N/A   Overcast
11:53 AM 24.1 °F 10.6 °F 19.0 °F 81% 30.03 in 10.0 mi South 17.3 mph 24.2 mph N/A   Overcast
12:53 PM 24.1 °F 10.1 °F 19.9 °F 84% 29.99 in 9.0 mi South 18.4 mph - N/A   Overcast
1:53 PM 26.1 °F 13.1 °F 21.0 °F 81% 29.95 in 10.0 mi South 17.3 mph - N/A   Overcast
2:53 PM 27.0 °F 15.2 °F 21.9 °F 81% 29.98 in 10.0 mi SSW 15.0 mph - N/A   Overcast
3:36 PM 28.4 °F 16.2 °F 21.2 °F 74% 29.90 in 10.0 mi South 17.3 mph - N/A   Partly Cloudy
3:53 PM 28.9 °F 16.5 °F 23.0 °F 78% 29.96 in 10.0 mi South 18.4 mph - N/A   Partly Cloudy
4:53 PM 28.0 °F 16.5 °F 21.9 °F 78% 29.98 in 10.0 mi South 15.0 mph - N/A   Clear
5:53 PM 24.1 °F 16.0 °F 19.9 °F 84% 30.03 in 10.0 mi SSE 6.9 mph - N/A   Clear
6:53 PM 24.1 °F - 19.9 °F 84% 30.06 in 10.0 mi North - - N/A   Clear
7:53 PM 21.9 °F 13.4 °F 19.0 °F 89% 30.13 in 10.0 mi NNE 6.9 mph - N/A   Clear
8:53 PM 21.0 °F 9.9 °F 18.0 °F 88% 30.18 in 8.0 mi NNE 10.4 mph - N/A   Clear
9:30 PM 21.2 °F 10.1 °F 19.4 °F 93% 30.11 in 7.0 mi NNE 10.4 mph - N/A   Mostly Cloudy
9:53 PM 24.1 °F 14.4 °F 19.9 °F 84% 30.18 in 8.0 mi NE 9.2 mph - N/A   Mostly Cloudy
10:06 PM 23.0 °F 14.7 °F 19.4 °F 86% 30.12 in 8.0 mi NE 6.9 mph - N/A   Scattered Clouds
10:16 PM 21.2 °F 13.6 °F 19.4 °F 93% 30.13 in 8.0 mi NE 5.8 mph - N/A   Mostly Cloudy
10:24 PM 21.2 °F 13.6 °F 17.6 °F 86% 30.14 in 8.0 mi NNE 5.8 mph - N/A   Scattered Clouds
10:53 PM 19.9 °F 10.1 °F 17.1 °F 89% 30.21 in 8.0 mi NNE 8.1 mph - N/A   Clear
11:53 PM 19.9 °F 10.1 °F 17.1 °F 89% 30.21 in 7.0 mi North 8.1 mph - N/A   Clear